Alamosa, CO

8:01 PM MDT on September 21, 2017 (GMT -0600)
San Luis Valley Regional / Bergman Field

Weather History for KALS - November, 2013

Change the Weather History Date:

Saturday, November 16, 2013

  Actual Average Record
Temperature  
Mean Temperature 34 °F 29 °F  
Max Temperature 48 °F 47 °F 67 °F (2016)
Min Temperature 20 °F 12 °F -10 °F (1955)
Degree Days  
Heating Degree Days 31 36  
Month to date heating degree days 479 512  
Since 1 July heating degree days 1478 1622  
Cooling Degree Days 0 0  
Month to date cooling degree days 0 0  
Year to date cooling degree days 113 51  
Moisture  
Dew Point 25 °F    
Average Humidity 63    
Maximum Humidity 92    
Minimum Humidity 34    
Precipitation  
Precipitation 0.00 in 0.01 in 0.56 in (1957)
Month to date precipitation 0.01 0.25  
Year to date precipitation 8.40 6.79  
Snow  
Snow 0.00 in 0.10 in 6.10 in (1957)
Month to date snowfall 0.0 1.9  
Since 1 July snowfall 3.5 4.0  
Since 1 September snowfall 3.5 4.0  
Snow Depth 0.00 in    
Sea Level Pressure  
Sea Level Pressure 29.59 in    
Wind  
Wind Speed 12 mph (SW)    
Max Wind Speed 32 mph    
Max Gust Speed 41 mph    
Visibility 10 miles    
Events      
T = Trace of Precipitation, MM = Missing Value Source: NWS Daily Summary

Daily Weather History Graph

Daily Weather History Graph

Search for Another Location

Airport or City:

Trip Planner

Search our weather history database for the weather conditions in past years. The results will help you decide how hot, cold, wet, or windy it might be!

Date:

Astronomy

Nov. 16, 2013 Rise Set
Actual Time 6:44 AM MST 4:51 PM MST
Civil Twilight 6:16 AM MST 5:19 PM MST
Nautical Twilight 5:44 AM MST 5:51 PM MST
Astronomical Twilight 5:13 AM MST 6:22 PM MST
Moon 4:28 PM MST (11/16) 5:44 AM MST (11/16)
Length of Visible Light 11h 03m
Length of Day
10h 07m
Waxing Gibbous, 99% of the Moon is Illuminated
Nov 16
Waxing Gibbous
Nov 17
Full
Nov 25
Last Quarter
Dec 2
New
Dec 9
First Quarter

Hourly Weather History & Observations

Time (MST) Temp. Windchill Dew Point Humidity Pressure Visibility Wind Dir Wind Speed Gust Speed Precip Events Conditions
12:25 AM 33.8 °F 27.7 °F 30.2 °F 87% 29.68 in 10.0 mi South 6.9 mph - N/A   Mostly Cloudy
12:32 AM 33.8 °F 27.7 °F 30.2 °F 87% 29.68 in 10.0 mi South 6.9 mph - N/A   Scattered Clouds
12:52 AM 34.0 °F 28.0 °F 30.0 °F 85% 29.53 in 10.0 mi South 6.9 mph - N/A   Clear
1:52 AM 28.9 °F 20.4 °F 27.0 °F 92% 29.55 in 10.0 mi South 9.2 mph - N/A   Clear
2:52 AM 26.1 °F - 23.0 °F 88% 29.57 in 10.0 mi Calm Calm - N/A   Clear
3:52 AM 30.9 °F 23.5 °F 27.0 °F 85% 29.59 in 10.0 mi SE 8.1 mph - N/A   Mostly Cloudy
4:52 AM 27.0 °F 20.5 °F 24.1 °F 89% 29.63 in 10.0 mi East 5.8 mph - N/A   Scattered Clouds
5:52 AM 24.1 °F 19.7 °F 21.0 °F 88% 29.68 in 10.0 mi ESE 3.5 mph - N/A   Clear
6:52 AM 21.0 °F - 19.9 °F 96% 29.72 in 10.0 mi Calm Calm - N/A   Scattered Clouds
7:52 AM 32.0 °F 25.6 °F 25.0 °F 75% 29.66 in 10.0 mi SSW 6.9 mph - N/A   Mostly Cloudy
8:52 AM 39.0 °F 31.8 °F 30.9 °F 73% 29.62 in 10.0 mi South 11.5 mph - N/A   Clear
9:52 AM 42.1 °F 33.9 °F 28.0 °F 58% 29.64 in 10.0 mi South 17.3 mph 20.7 mph N/A   Mostly Cloudy
10:52 AM 46.0 °F 39.0 °F 21.9 °F 39% 29.61 in 10.0 mi WSW 17.3 mph - N/A   Partly Cloudy
11:52 AM 46.0 °F 39.6 °F 21.9 °F 39% 29.57 in 10.0 mi South 15.0 mph - N/A   Partly Cloudy
12:52 PM 46.9 °F - 19.0 °F 33% 29.52 in 10.0 mi SW 25.3 mph 34.5 mph N/A   Partly Cloudy
1:52 PM 46.0 °F 38.3 °F 19.0 °F 34% 29.52 in 10.0 mi WSW 20.7 mph 26.5 mph N/A   Clear
2:52 PM 46.0 °F 38.3 °F 19.0 °F 34% 29.55 in 10.0 mi West 20.7 mph 28.8 mph N/A   Partly Cloudy
3:52 PM 43.0 °F 36.8 °F 21.0 °F 42% 29.55 in 10.0 mi West 11.5 mph 23.0 mph N/A   Clear
4:52 PM 39.9 °F 30.0 °F 21.0 °F 47% 29.57 in 10.0 mi WSW 21.9 mph 31.1 mph N/A   Clear
5:52 PM 37.0 °F 26.7 °F 27.0 °F 67% 29.59 in 10.0 mi SW 19.6 mph 27.6 mph N/A   Clear
6:52 PM 36.0 °F 24.4 °F 28.9 °F 76% 29.60 in 10.0 mi SW 23.0 mph 35.7 mph N/A   Clear
7:52 PM 34.0 °F 28.8 °F 28.0 °F 79% 29.57 in 10.0 mi West 5.8 mph - N/A   Clear
8:52 PM 34.0 °F 29.8 °F 27.0 °F 75% 29.56 in 10.0 mi West 4.6 mph - N/A   Clear
9:52 PM 33.1 °F 24.9 °F 27.0 °F 78% 29.57 in 10.0 mi WSW 10.4 mph - N/A   Clear
10:52 PM 35.1 °F 25.5 °F 26.1 °F 70% 29.56 in 10.0 mi SW 15.0 mph 20.7 mph N/A   Clear
11:52 PM 36.0 °F 27.5 °F 25.0 °F 64% 29.57 in 10.0 mi WSW 12.7 mph 23.0 mph N/A   Clear